Regional Weather Roundup
Issued by NWS

Home | Current Version | Previous Version | Text Only | Print | Product List | Glossary Off
Versions: 1 2 3 4 5 6 7 8 9 10 11 12 13 14 15 16 17 18 19 20 21 22 23 24 25 26 27 28 29 30 31 32 33 34 35 36 37 38 39 40 41 42 43 44 45 46 47 48 49 50

432
ASUS45 KABQ 240410
RWRNM
NEW MEXICO REGIONAL WEATHER ROUNDUP
NATIONAL WEATHER SERVICE ALBUQUERQUE NM
1000 PM MDT SAT JUL 23 2016

NOTE: "FAIR" MEANS FEW OR NO CLOUDS BELOW 12,000 FEET AGL WITH NO
       SIGNIFICANT WEATHER OR OBSTRUCTIONS TO VISION.

      THIS PRODUCT IS RELEASED AS TWO VERSIONS.  ONE VERSION NEAR
      THE TOP OF THE HOUR CONTAINING PRELIMINARY DATA FROM ALBUQUERQUE
      AND OTHER STATIONS.  A FINAL VERSION WITH ADDITIONAL DATA IS
      ISSUED ABOUT 10 MINUTES AFTER THE HOUR.

NMZ501-503-504-510>518-240500-
NORTHWEST PLATEAU/NORTHCENTRAL MOUNTAINS

CITY           SKY/WX    TMP DP  RH WIND       PRES   REMARKS
FARMINGTON     FAIR      81  43  26 N10       30.09R
LOS ALAMOS     MOCLDY    73  46  38 NE12G20   30.31R
SANTA FE       MOCLDY    74  54  49 NE15      30.21R
TAOS           MOCLDY    70  43  37 SE14G21   30.34R
ANGEL FIRE     LGT RAIN  65  47  53 SW9       30.45R

$$
NMZ402-403-502-505>509-240500-
WESTCENTRAL MOUNTAINS/SOUTHWEST MOUNTAINS

CITY           SKY/WX    TMP DP  RH WIND       PRES   REMARKS
GALLUP         MOCLDY    68  54  60 S21G33    30.26R
GRANTS         MOCLDY    71  51  48 SE24G30   30.31R
SILVER CITY    FAIR      76  48  36 NW8       30.12R

$$
NMZ407-409-411-412-240500-
SOUTHERN DESERTS

CITY           SKY/WX    TMP DP  RH WIND       PRES   REMARKS
LORDSBURG      FAIR      84  46  26 N12       30.02R
DEMING         FAIR      88  48  25 NW14G24   29.98R
LAS CRUCES     FAIR      92  38  15 N6        30.00R
ALAMOGORDO     FAIR      86  39  19 SE6       29.96R
T OR C         FAIR      86  44  23 NW18      30.03R

$$
NMZ519>523-240500-
CENTRAL VALLEYS/CENTRAL HIGHLANDS

CITY           SKY/WX    TMP DP  RH WIND       PRES   REMARKS
ALBUQUERQUE    MOCLDY    87  45  23 SE16G24   30.10R THUNDER
DOUBLE EAGLE   MOCLDY    82  46  28 W28       30.12R
MORIARTY ARPT  MOCLDY    82  37  20 E12       30.19R
CLINES CORNERS MOCLDY    76  45  33 E10       30.27R
BELEN          FAIR      84  42  22 W22G31    30.06R
SOCORRO        DRIZZLE   89  38  16 N15G28    30.05S

$$
NMZ524>526-539-540-240500-
SOUTHCENTRAL MOUNTAINS

CITY           SKY/WX    TMP DP  RH WIND       PRES   REMARKS
RUIDOSO          N/A     73  39  29 SE9       30.27R

$$
NMZ527>531-240500-
NORTHEAST HIGHLANDS/NORTHEAST PLAINS

CITY           SKY/WX    TMP DP  RH WIND       PRES   REMARKS
LAS VEGAS      MOCLDY    69  50  50 NW13      30.29R
RATON          FAIR      72  48  42 S8        30.21R
CLAYTON        FAIR      75  56  51 S7        30.07R

$$
NMZ532>537-240500-
EASTCENTRAL PLAINS

CITY           SKY/WX    TMP DP  RH WIND       PRES   REMARKS
TUCUMCARI      FAIR      84  41  21 CALM      29.99R
CANNON AFB     FAIR      78  51  38 SE9       30.04R
CLOVIS AIRPORT FAIR      79  48  34 SE9       30.04R

$$
NMZ028-029-538-240500-
SOUTHEAST PLAINS

CITY           SKY/WX    TMP DP  RH WIND       PRES   REMARKS
ROSWELL        FAIR      85  41  21 SE7       29.95R
ARTESIA        FAIR      86  45  23 SE9       29.95R
CARLSBAD       FAIR      87  46  24 SE9       29.93R
HOBBS          FAIR      84  50  30 SE9       30.00R


$$




USA.gov is the U.S. government's official web portal to all federal, state and local government web resources and services.